Вернуться в каталог

KUIPER-00557

АктивенСвязьVLEO
NORAD 69622·PAYLOAD·🇺🇸 United States

Запущен Jun 17, 2026 с Guiana Space Centre

Loading…

Ближайшие Пролёты (ближайшие 24 часа)

TLE

СвежийSource: CelesTrak SupGP

Эпоха: Sep 14, 2026, 17:00 UTC

1 69622C 26140AG  26257.70842593  .00010373  00000+0  26728-3 0  2576
2 69622  51.8808 325.5229 0008834 145.7521  93.9500 15.38551383    12

Отслеживайте KUIPER-00557 в реальном времени с AllMySat

Download on the App Store